Lid_Strength_Index
2 2 1 0 0 2 6 9 10 8 7 11 14 13 12 9 11 10 10 10 11 12 13 14 14 13 13 12 13 15 16 17 18 17 16 14 15 16 17 19 20 21 22 19
2 2 1 0 1 3 8 10 11 8 7 13 14 13 11 11 11 11 11 12 11 12 13 14 13 13 12 12 13 15 15 18 20 19 17 16 18 16 16 17 18 20 21 19
2 3 2 1 1 3 8 12 13 11 11 12 13 13 13 13 11 11 12 13 12 13 15 13 14 14 12 12 12 9 13 18 19 20 18 16 18 16 16 17 22 21 20 19
2 3 3 1 1 2 8 12 12 12 14 12 13 13 13 14 14 13 14 15 14 15 16 16 15 14 15 13 10 14 16 19 18 17 16 16 16 16 17 18 18 19 18 18
2 2 3 2 2 3 8 11 13 14 15 14 14 13 14 14 15 15 15 16 14 16 16 16 15 14 16 16 14 16 16 18 18 19 16 16 16 15 16 16 17 17 17 16
2 2 3 3 3 5 10 12 12 12 14 16 15 15 14 13 13 14 13 14 15 15 15 14 15 14 14 14 15 16 16 17 18 19 18 17 18 17 15 15 15 15 16 15
2 3 2 3 3 5 9 10 11 12 14 14 14 14 14 14 14 15 14 14 15 14 14 14 14 14 14 14 15 14 16 17 18 21 19 22 17 14 14 14 13 13 13 12
2 3 3 2 2 4 8 9 9 11 14 14 14 14 14 14 14 14 14 13 13 13 14 15 16 16 16 16 16 16 16 17 20 22 22 18 16 14 14 15 14 12 12 12
2 3 3 3 3 4 9 10 9 10 13 13 13 14 15 15 16 16 15 13 13 13 14 15 19 18 17 17 17 15 16 17 18 20 24 23 17 13 12 12 17 11 11 12
2 3 3 3 3 4 8 10 9 10 13 14 14 14 14 14 15 16 16 15 15 14 16 17 18 18 16 18 18 18 19 19 19 20 22 18 14 12 12 17 16 11 11 12
2 3 3 3 3 3 7 9 9 10 13 13 11 11 13 13 13 14 14 14 14 15 17 17 17 19 16 18 16 16 17 20 20 20 21 20 12 12 14 13 12 12 13 13
3 3 3 4 3 3 6 9 8 9 11 12 11 11 11 11 12 13 15 13 15 13 16 17 17 17 17 16 18 16 17 15 17 17 17 13 12 13 12 12 12 12 12 12
3 3 4 4 3 3 7 10 10 10 12 12 12 12 10 10 10 10 13 13 12 13 13 14 15 15 15 18 17 18 15 14 15 15 14 13 13 12 12 11 11 11 11 11
3 4 4 4 4 4 7 9 10 11 12 14 13 10 11 10 10 10 11 11 12 12 12 14 17 16 14 15 14 15 14 13 15 15 14 13 13 12 11 11 11 11 11 11
3 4 4 4 4 5 8 10 10 10 12 14 14 12 11 11 10 10 10 11 12 13 14 15 17 14 14 16 16 16 13 14 15 15 13 13 13 12 11 11 11 11 11 11
3 4 4 4 5 7 12 13 11 9 10 13 17 13 13 11 10 11 11 11 12 13 14 15 15 13 15 20 19 14 13 12 12 12 13 13 12 11 11 11 10 10 9 10
3 4 4 4 6 9 13 14 12 8 11 13 17 17 13 13 12 13 12 12 13 13 14 15 14 14 15 20 19 13 13 12 13 13 12 13 12 12 10 10 9 8 9 9
4 4 5 5 5 7 10 9 8 10 13 14 18 19 15 13 15 15 14 14 14 14 15 15 15 15 17 20 14 13 12 13 13 13 13 12 12 11 11 10 10 10 10 9
4 5 6 8 10 12 11 6 9 12 13 17 20 19 19 14 16 15 15 15 18 16 17 16 16 18 19 14 14 13 12 12 13 13 12 12 12 11 11 11 11 11 10 10
5 9 12 13 11 7 8 12 14 15 15 15 19 17 18 15 17 18 17 19 19 20 17 16 19 17 14 13 12 12 12 12 12 13 14 14 13 12 12 11 10 10 10 9
10 12 13 10 7 11 14 16 17 17 19 17 17 16 16 14 16 17 17 20 19 21 18 18 19 19 16 14 14 13 12 12 12 12 12 12 12 12 12 11 10 10 10 10
10 10 9 10 13 15 17 20 17 19 19 17 17 16 15 15 14 16 18 20 21 22 18 20 20 17 15 14 14 14 13 12 12 11 11 11 10 10 10 10 10 10 9 8
10 12 14 14 16 21 20 22 20 21 17 16 17 17 16 15 15 17 19 22 21 17 22 19 18 16 15 15 14 13 12 12 11 11 11 10 10 10 10 10 10 9 9 8
13 15 18 16 21 20 19 18 17 16 16 16 16 17 16 16 17 19 21 19 19 24 23 20 17 16 15 15 14 13 14 13 12 12 12 12 11 11 10 10 10 9 8 7
14 15 16 21 18 19 18 17 16 16 14 16 17 17 17 20 20 20 19 19 24 20 20 18 17 16 15 15 14 14 13 12 12 12 11 11 10 10 10 9 8 8 8 8
15 18 20 19 18 19 17 16 16 14 15 16 16 19 21 20 19 22 21 22 22 19 18 17 16 16 15 14 14 13 13 13 12 12 11 10 10 10 9 9 8 8 8 8
19 20 17 17 16 16 16 14 15 13 15 18 19 22 21 21 24 22 20 20 19 18 17 16 15 15 14 14 14 13 13 12 12 11 11 10 10 10 9 9 8 8 8 8